星链-5112 (STARLINK-5112 )

导读 | 豆包AI

STARLINK-5112是美国SpaceX公司星链(Starlink)星座的卫星,于2022年10月5日发射升空。星链计划旨在构建全球卫星互联网星座,为全球提供高速低延迟的宽带服务,尤其覆盖偏远地区。作为低轨卫星,STARLINK-5112为实现全球互联的目标贡献力量,持续支撑星座的服务能力扩展。

基本信息
目录编号:
53987
目录名称:
STARLINK-5112
国际标识:
2022-125Z
轨道中心:
EARTH
卫星名称:
星链-5112
卫星全名:
星链-5112 (STARLINK-5112 )
卫星状态:
已陨落 最后检测时间 2025-02-26
发射日期:
2022-10-05 UTC
国别 :
美国 (US)
星等 :
--
轨道信息
数据来源 国际轨道数据
星历时间: 2025-02-26T20:47:52+0800
轨道信息已过期428天
半长轴: 6531.647km
偏心率: 0.0000841
轨道倾角: 53.208°
近地点辐角 147.618°
升交点赤经 73.285°
平近点角 345.786°
近地点: 152.962km
远地点: 154.062km
周期: 87.558分钟
每日圈数: 16.446321
详细信息
固有亮度:
5
最大亮度:
2.5
卫星平台:
Starlink v1.5
覆盖范围:
全球
运营商:
太空探索技术公司
运营商所在国:
美国
制造商(研发单位):
太空探索技术公司
制造商所在国:
美国
使用方式:
暂无
卫星简介
星链(Starlink)计划是由太空探索技术公司(SpaceX)提出的一个巨型低轨卫星互联网星座项目,计划在2019年至2024年间在太空搭建由约1.2万颗卫星组成的“星链”网络,其中1584颗将部署在地球上空550千米处的近地轨道,并从2020年开始工作。该卫星仍在工作。